Weather History for KINT - April, 2013

Change the Weather History Date:

Saturday, April 27, 2013

  Actual Average Record
Temperature  
Mean Temperature 60 °F -  
Max Temperature 66 °F 69 °F 90 °F (1986)
Min Temperature 54 °F 49 °F 30 °F (1972)
Degree Days  
Heating Degree Days 5    
Growing Degree Days 10 (Base 50)    
Moisture  
Dew Point 45 °F    
Average Humidity 59    
Maximum Humidity 87    
Minimum Humidity 47    
Precipitation  
Precipitation 0.00 in - - ()
Sea Level Pressure  
Sea Level Pressure 30.32 in    
Wind  
Wind Speed 2 mph (SW)    
Max Wind Speed 6 mph    
Max Gust Speed -    
Visibility 10 miles    
Events      
Averages and records for this station are not official NWS values.
T = Trace of Precipitation, MM = Missing Value Source: NWS Daily Summary

Daily Weather History Graph

Daily Weather History Graph

Search for Another Location

Airport or City:

Trip Planner

Search our weather history database for the weather conditions in past years. The results will help you decide how hot, cold, wet, or windy it might be!

Date:

Astronomy

Apr. 27, 2013 Rise Set
Actual Time 6:32 AM EDT 8:05 PM EDT
Civil Twilight 6:05 AM EDT 8:32 PM EDT
Nautical Twilight 5:32 AM EDT 9:05 PM EDT
Astronomical Twilight 4:58 AM EDT 9:39 PM EDT
Moon 10:29 PM EDT (4/27) 7:52 AM EDT (4/27)
Length of Visible Light 14h 27m
Length of Day
13h 32m
Waning Gibbous, 95% of the Moon is Illuminated
Apr 27
Waning Gibbous
May 2
Last Quarter
May 9
New
May 18
First Quarter
May 25
Full

Hourly Weather History & Observations

Time (EDT) Temp. Dew Point Humidity Pressure Visibility Wind Dir Wind Speed Gust Speed Precip Events Conditions
12:54 AM 57.9 °F 39.9 °F 51% 30.35 in 10.0 mi Calm Calm - N/A   Overcast
1:54 AM 55.9 °F 43.0 °F 62% 30.35 in 10.0 mi Calm Calm - N/A   Mostly Cloudy
2:54 AM 57.0 °F 41.0 °F 55% 30.34 in 10.0 mi Calm Calm - N/A   Partly Cloudy
3:54 AM 55.9 °F 42.1 °F 60% 30.33 in 10.0 mi Calm Calm - N/A   Overcast
4:54 AM 55.9 °F 42.1 °F 60% 30.32 in 10.0 mi Calm Calm - N/A   Overcast
5:54 AM 55.0 °F 42.1 °F 62% 30.35 in 10.0 mi SSE 3.5 mph - N/A   Overcast
6:54 AM 54.0 °F 43.0 °F 66% 30.34 in 10.0 mi Calm Calm - N/A   Overcast
7:54 AM 55.0 °F 43.0 °F 64% 30.35 in 10.0 mi Calm Calm - N/A   Overcast
8:54 AM 57.9 °F 42.1 °F 56% 30.36 in 10.0 mi SSW 3.5 mph - N/A   Overcast
9:54 AM 60.1 °F 44.1 °F 55% 30.34 in 10.0 mi Variable 4.6 mph - N/A   Scattered Clouds
10:54 AM 63.0 °F 45.0 °F 52% 30.35 in 10.0 mi WSW 5.8 mph - N/A   Overcast
11:54 AM 64.9 °F 46.0 °F 50% 30.34 in 10.0 mi Variable 3.5 mph - N/A   Mostly Cloudy
12:54 PM 66.0 °F 45.0 °F 47% 30.33 in 10.0 mi West 5.8 mph - N/A   Overcast
1:54 PM 64.9 °F 46.9 °F 52% 30.32 in 10.0 mi Variable 3.5 mph - N/A   Overcast
2:54 PM 64.9 °F 46.0 °F 50% 30.32 in 10.0 mi SW 3.5 mph - N/A   Overcast
3:54 PM 64.0 °F 48.0 °F 56% 30.32 in 10.0 mi SW 4.6 mph - 0.00 in   Overcast
4:54 PM 64.0 °F 48.9 °F 58% 30.31 in 10.0 mi Variable 3.5 mph - N/A   Overcast
5:54 PM 63.0 °F 48.0 °F 58% 30.31 in 10.0 mi South 3.5 mph - N/A   Overcast
6:54 PM 62.1 °F 46.0 °F 56% 30.28 in 10.0 mi SSW 3.5 mph - N/A   Scattered Clouds
7:54 PM 61.0 °F 48.0 °F 62% 30.29 in 10.0 mi SW 3.5 mph - 0.00 in   Overcast
8:54 PM 60.1 °F 48.0 °F 64% 30.30 in 10.0 mi Calm Calm - 0.00 in   Overcast
9:54 PM 59.0 °F 48.9 °F 69% 30.29 in 10.0 mi Calm Calm - 0.00 in   Overcast
10:54 PM 57.9 °F 50.0 °F 75% 30.27 in 10.0 mi Calm Calm - N/A   Overcast
11:54 PM 55.9 °F 52.0 °F 87% 30.26 in 10.0 mi Calm Calm - N/A   Overcast